Location: Hackberry
(29.5783°N, 96.8797°W)
Time: 14:02:34
(UTC+00:00)

Transit 2A - Pass Details

Date: 08 November 2024
Orbit: 592 x 956 km, 66.7° (Epoch: 02 December)

Event Time Altitude Azimuth Distance (km) Brightness Sun altitude
Rises 11:27:55 0° 208° (SSW) 3,509 9.2 -17.4°
Reaches altitude 10° 11:30:22 10° 210° (SSW) 2,607 8.5 -16.9°
Maximum altitude 11:36:31 74° 295° (WNW) 989 6.4 -15.6°
Drops below altitude 10° 11:42:52 10° 20° (NNE) 2,686 8.9 -14.2°
Sets 11:45:26 0° 23° (NNE) 3,622 9.6 -13.7°
